Retour au catalogue

COSMOS 764

ActifMilitaireLEO
NORAD 8288·PAYLOAD·🇷🇺 Russia

Lancé Sep 17, 1975 depuis Plesetsk Cosmodrome

Loading…

Prochains Passages (prochaines 24 heures)

TLE

FraisSource: Space-Track

Époque: Sep 14, 2026, 09:24 UTC

1 08288U 75086D   26257.39178427 -.00000024  00000-0 -66703-4 0  9999
2 08288  74.0072 225.4241 0029357 123.4666 310.9517 12.41091762310319

Suivez COSMOS 764 en temps réel avec AllMySat

Download on the App Store